Location: Appletree Creek
(38.7363°N, 122.6833°W)
Time: 08:38:56
(UTC+00:00)

IRIDIUM 103 - Pass Details

Date: 18 September 2020
Orbit: 776 x 779 km, 86.4° (Epoch: 21 October)

Event Time Altitude Azimuth Distance (km) Brightness Sun altitude
Rises 12:20:35 0° 357° (N) 3,266 7.8 -19.0°
Reaches altitude 10° 12:22:56 10° 357° (N) 2,334 7.0 -18.5°
Maximum altitude 12:28:11 89° 267° (W) 782 4.3 -17.6°
Drops below altitude 10° 12:33:22 10° 180° (S) 2,317 6.6 -16.6°
Sets 12:35:42 0° 180° (S) 3,240 7.4 -16.2°
